When you browse on this site, cookies collect data to enhance your experience and personalize the content and advertising you see.
Visit our Privacy Policy to learn more. By continuing to use the site, you agree to this use of cookies and data.
  • In Romania
  • List of Countries
  • For 7 days
  • Water Temperature
  • Satellite Maps
  • Weather Map
  • Weather Widgets
  • user-avatar
    Login

    Hourly Weather San Antonio

    Today, 10 December, Monday

    Time Temperature Precipitation Wind Pressure Humidity
    00:00 +6°C° 0 mm 2 mps 753 mmHg 75%
    01:00 +5°C° 0 mm 2 mps 753 mmHg 75%
    02:00 +5°C° 0 mm 2 mps 753 mmHg 75%
    03:00 +5°C° 0 mm 2 mps 753 mmHg 74%
    04:00 +5°C° 0 mm 2 mps 753 mmHg 73%
    05:00 +5°C° 0 mm 2 mps 753 mmHg 72%
    06:00 +5°C° 0 mm 2 mps 753 mmHg 68%
    07:00 +6°C° 0 mm 2 mps 754 mmHg 64%
    08:00 +7°C° 0 mm 2 mps 754 mmHg 60%
    09:00 +9°C° 0 mm 2 mps 754 mmHg 55%
    10:00 +12°C° 0 mm 1 mps 754 mmHg 50%
    11:00 +14°C° 0 mm 1 mps 754 mmHg 45%
    12:00 +14°C° 0 mm 1 mps 753 mmHg 43%
    13:00 +15°C° 0 mm 1 mps 753 mmHg 41%
    14:00 +15°C° 0 mm 0 mps 752 mmHg 39%
    15:00 +15°C° 0 mm 1 mps 752 mmHg 43%
    16:00 +13°C° 0 mm 1 mps 752 mmHg 47%
    17:00 +12°C° 0 mm 1 mps 752 mmHg 51%
    18:00 +11°C° 0 mm 1 mps 752 mmHg 54%
    19:00 +11°C° 0 mm 1 mps 753 mmHg 57%
    20:00 +9°C° 0 mm 2 mps 753 mmHg 60%
    21:00 +9°C° 0 mm 2 mps 753 mmHg 63%
    22:00 +8°C° 0 mm 2 mps 753 mmHg 65%
    23:00 +9°C° 0 mm 1 mps 753 mmHg 68%

    Tomorrow, 11 December, Tuesday

    Time Temperature Precipitation Wind Pressure Humidity
    00:00 +8°C° 0 mm 1 mps 753 mmHg 70%
    01:00 +8°C° 0 mm 1 mps 753 mmHg 72%
    02:00 +8°C° 0 mm 1 mps 753 mmHg 74%
    03:00 +8°C° 0 mm 1 mps 753 mmHg 76%
    04:00 +7°C° 0 mm 1 mps 753 mmHg 77%
    05:00 +7°C° 0 mm 1 mps 752 mmHg 78%
    06:00 +8°C° 0 mm 1 mps 753 mmHg 75%
    07:00 +8°C° 0 mm 2 mps 753 mmHg 72%
    08:00 +9°C° 0 mm 2 mps 753 mmHg 69%
    09:00 +11°C° 0 mm 3 mps 753 mmHg 64%
    10:00 +12°C° 0 mm 4 mps 752 mmHg 59%
    11:00 +14°C° 0 mm 5 mps 752 mmHg 54%
    12:00 +15°C° 0 mm 5 mps 751 mmHg 55%
    13:00 +15°C° 0 mm 5 mps 750 mmHg 55%
    14:00 +16°C° 0 mm 6 mps 749 mmHg 56%
    15:00 +15°C° 0 mm 5 mps 749 mmHg 62%
    16:00 +14°C° 0 mm 4 mps 748 mmHg 67%
    17:00 +13°C° 0 mm 3 mps 748 mmHg 73%
    18:00 +13°C° 0 mm 3 mps 748 mmHg 75%
    19:00 +12°C° 0 mm 3 mps 748 mmHg 77%
    20:00 +12°C° 0 mm 3 mps 748 mmHg 79%
    21:00 +12°C° 0 mm 3 mps 748 mmHg 81%
    22:00 +12°C° 0 mm 3 mps 748 mmHg 82%
    23:00 +12°C° 0 mm 3 mps 747 mmHg 84%

    Day after tomorrow, 12 December, Wednesday

    Time Temperature Precipitation Wind Pressure Humidity
    00:00 +12°C° 0 mm 3 mps 747 mmHg 86%
    01:00 +12°C° 0 mm 3 mps 746 mmHg 87%
    02:00 +12°C° 0 mm 3 mps 746 mmHg 88%
    03:00 +12°C° 0 mm 3 mps 745 mmHg 89%
    04:00 +12°C° 0 mm 3 mps 745 mmHg 90%
    05:00 +13°C° 0 mm 2 mps 745 mmHg 90%
    06:00 +14°C° 0 mm 2 mps 745 mmHg 89%
    07:00 +13°C° 0 mm 3 mps 745 mmHg 88%
    08:00 +14°C° 0 mm 3 mps 745 mmHg 87%
    09:00 +15°C° 0 mm 4 mps 745 mmHg 85%
    10:00 +17°C° 0 mm 4 mps 745 mmHg 82%
    11:00 +17°C° 0 mm 5 mps 744 mmHg 80%
    12:00 +18°C° 0 mm 4 mps 744 mmHg 81%
    13:00 +18°C° 0 mm 4 mps 743 mmHg 82%
    14:00 +18°C° 0 mm 4 mps 742 mmHg 84%
    15:00 +18°C° 0 mm 3 mps 742 mmHg 86%
    16:00 +18°C° 0 mm 2 mps 741 mmHg 89%
    17:00 +18°C° 0 mm 1 mps 741 mmHg 92%
    18:00 +18°C° 0 mm 1 mps 741 mmHg 93%
    19:00 +16°C° 0 mm 1 mps 742 mmHg 94%
    20:00 +16°C° 0 mm 1 mps 742 mmHg 95%
    21:00 +16°C° 0 mm 2 mps 741 mmHg 95%
    22:00 +16°C° 0 mm 2 mps 741 mmHg 96%
    23:00 +15°C° 0 mm 2 mps 741 mmHg 96%

    13 December, Thursday

    Time Temperature Precipitation Wind Pressure Humidity
    00:00 +14°C° 0 mm 3 mps 740 mmHg 95%
    01:00 +14°C° 0 mm 3 mps 740 mmHg 94%
    02:00 +14°C° 0 mm 4 mps 739 mmHg 93%
    03:00 +14°C° 0 mm 4 mps 739 mmHg 91%
    04:00 +14°C° 0 mm 4 mps 739 mmHg 88%
    05:00 +13°C° 0 mm 5 mps 739 mmHg 86%
    06:00 +12°C° 0 mm 7 mps 741 mmHg 69%
    07:00 +12°C° 0 mm 8 mps 742 mmHg 53%
    08:00 +12°C° 0 mm 10 mps 743 mmHg 36%
    09:00 +13°C° 0 mm 10 mps 743 mmHg 37%
    10:00 +13°C° 0 mm 11 mps 744 mmHg 37%
    11:00 +14°C° 0 mm 11 mps 744 mmHg 38%
    12:00 +14°C° 0 mm 11 mps 744 mmHg 36%
    13:00 +14°C° 0 mm 11 mps 744 mmHg 34%
    14:00 +16°C° 0 mm 11 mps 743 mmHg 32%
    15:00 +13°C° 0 mm 9 mps 744 mmHg 33%
    16:00 +12°C° 0 mm 8 mps 744 mmHg 34%
    17:00 +11°C° 0 mm 6 mps 745 mmHg 35%
    18:00 +10°C° 0 mm 6 mps 746 mmHg 34%
    19:00 +10°C° 0 mm 6 mps 747 mmHg 33%
    20:00 +9°C° 0 mm 6 mps 747 mmHg 31%
    21:00 +9°C° 0 mm 6 mps 747 mmHg 31%
    22:00 +8°C° 0 mm 5 mps 747 mmHg 31%
    23:00 +8°C° 0 mm 5 mps 747 mmHg 30%

    14 December, Friday

    Time Temperature Precipitation Wind Pressure Humidity
    00:00 +8°C° 0 mm 6 mps 747 mmHg 30%
    01:00 +8°C° 0 mm 6 mps 747 mmHg 29%
    02:00 +7°C° 0 mm 6 mps 747 mmHg 28%
    03:00 +7°C° 0 mm 6 mps 747 mmHg 28%
    04:00 +7°C° 0 mm 6 mps 747 mmHg 27%
    05:00 +7°C° 0 mm 6 mps 748 mmHg 27%
    06:00 +7°C° 0 mm 6 mps 748 mmHg 28%
    07:00 +8°C° 0 mm 6 mps 749 mmHg 28%
    08:00 +9°C° 0 mm 7 mps 749 mmHg 29%
    09:00 +11°C° 0 mm 7 mps 749 mmHg 27%
    10:00 +13°C° 0 mm 8 mps 749 mmHg 25%
    11:00 +16°C° 0 mm 8 mps 748 mmHg 23%
    12:00 +17°C° 0 mm 8 mps 748 mmHg 23%
    13:00 +17°C° 0 mm 8 mps 747 mmHg 24%
    14:00 +18°C° 0 mm 7 mps 747 mmHg 25%
    15:00 +16°C° 0 mm 6 mps 747 mmHg 29%
    16:00 +15°C° 0 mm 5 mps 747 mmHg 33%
    17:00 +13°C° 0 mm 3 mps 747 mmHg 36%
    18:00 +12°C° 0 mm 3 mps 748 mmHg 37%
    19:00 +12°C° 0 mm 3 mps 748 mmHg 37%
    20:00 +11°C° 0 mm 3 mps 748 mmHg 38%
    21:00 +11°C° 0 mm 3 mps 748 mmHg 38%
    22:00 +10°C° 0 mm 2 mps 748 mmHg 38%
    23:00 +10°C° 0 mm 2 mps 748 mmHg 38%

    15 December, Saturday

    Time Temperature Precipitation Wind Pressure Humidity
    00:00 +9°C° 0 mm 2 mps 748 mmHg 38%
    01:00 +9°C° 0 mm 2 mps 748 mmHg 39%
    02:00 +9°C° 0 mm 2 mps 748 mmHg 39%
    03:00 +8°C° 0 mm 2 mps 748 mmHg 39%
    04:00 +9°C° 0 mm 1 mps 748 mmHg 39%
    05:00 +9°C° 0 mm 1 mps 748 mmHg 39%
    06:00 +10°C° 0 mm 1 mps 748 mmHg 38%
    07:00 +11°C° 0 mm 1 mps 749 mmHg 37%
    08:00 +11°C° 0 mm 0 mps 749 mmHg 36%
    09:00 +14°C° 0 mm 1 mps 749 mmHg 34%
    10:00 +15°C° 0 mm 1 mps 749 mmHg 32%
    11:00 +17°C° 0 mm 2 mps 749 mmHg 30%
    12:00 +17°C° 0 mm 2 mps 748 mmHg 30%
    13:00 +18°C° 0 mm 2 mps 748 mmHg 30%
    14:00 +19°C° 0 mm 2 mps 747 mmHg 29%
    15:00 +17°C° 0 mm 2 mps 747 mmHg 35%
    16:00 +16°C° 0 mm 2 mps 747 mmHg 40%
    17:00 +14°C° 0 mm 2 mps 747 mmHg 45%
    18:00 +13°C° 0 mm 2 mps 747 mmHg 47%
    19:00 +13°C° 0 mm 2 mps 748 mmHg 48%
    20:00 +12°C° 0 mm 2 mps 748 mmHg 50%
    21:00 +12°C° 0 mm 2 mps 748 mmHg 51%
    22:00 +12°C° 0 mm 1 mps 748 mmHg 53%
    23:00 +11°C° 0 mm 1 mps 748 mmHg 54%
    Show more